sat.trackr.live / text

‹ back to catalog

STARLINK-35321

NORAD 66074 · 2025-235S

PAYLOAD ACTIVE UNKNOWN

§ Identity

Operator
Country
US
Launch date
2025-10-19
Launch site
AFETR
Launch vehicle
Mass (kg)
RCS (m²)

Purposes: comms

External: N2YO · Heavens-Above · Gunter

§ Orbital elements

Epoch: 2026-05-25T00:21:16.955712Z

Period
94.10 min
Inclination
53.1602°
Eccentricity
0.0001202
Mean motion
15.30208186 rev/d
Perigee alt
474.4 km
Apogee alt
476.0 km
Semi-major
6,853.3 km
B*
8.6672e-4
RAAN
250.9986°
Arg perigee
84.9427°
Mean anomaly
275.1711°
Rev number
3,460

§ Raw data

STARLINK-353211 66074U 25235S   26145.01477958  .00025405  00000+0  86672-3 0  99962 66074  53.1602 250.9986 0001202  84.9427 275.1711 15.30208186 34601

JSON: /api/v1/satellites/66074 · /tle

For live sub-satellite position, see the globe view (requires WebGL).

§ Visibility from observer

Set your observer location to see the next 7 days of passes ≥ 10°. The values pass through the URL so the page stays shareable.

No JS? Fill the form by hand. The geolocation button needs JavaScript.